Lid_Strength_Index
7 6 6 7 7 7 8 8 8 8 7 7 7 7 7 7 7 6 6 6 6 5
7 6 7 7 8 8 8 7 8 8 7 7 7 6 6 6 5 5 5 5 5 6
7 7 7 8 8 8 8 7 7 7 6 6 5 5 5 5 5 5 5 5 7 7
7 8 8 8 8 8 8 8 7 6 6 5 5 6 6 5 5 6 6 7 7 7
8 8 8 9 9 9 7 7 7 6 5 5 5 5 5 5 6 7 7 7 8 8
9 8 8 9 9 8 8 8 6 5 5 5 5 4 5 6 7 7 7 7 8 8
9 8 9 9 9 8 7 6 6 4 4 4 4 5 6 7 7 7 7 7 7 8
8 8 8 8 8 7 6 5 3 5 4 5 5 6 7 6 7 8 8 8 7 7
8 8 8 8 7 6 5 4 5 4 6 7 5 4 4 5 7 7 8 9 8 8
8 8 8 7 6 6 6 3 5 7 7 7 7 4 4 5 7 8 9 9 9 9
9 9 8 7 6 6 5 6 7 7 7 7 7 6 6 7 9 10 9 9 9 9
9 8 7 7 6 6 6 7 7 7 8 9 9 7 7 8 10 10 10 9 9 9
8 8 8 8 7 7 7 6 7 8 9 8 10 8 8 8 11 14 10 10 9 9
8 8 8 8 8 8 8 8 9 10 10 9 9 10 8 8 12 11 10 10 11 10